Left ArrowRight Arrow

46.40834, -105.84056

Hourly Observations for March 7, 2019

Temp ( °F °C ) Dew Point ( °F °C ) Humidity (%) Winds ( mph kmh ) Pressure ( in mb ) Visibility ( mi km ) Precip ( " mm )
12:53 am 00:53 Cloudy 9 -12.8 6 -14.4 88 88 E 8 13 30.17 1022 10 16 0.00 0.00
1:53 am 01:53 Cloudy 13 -10.6 7 -13.9 77 77 ESE 8 13 30.15 1021 10 16 0.00 0.00
2:53 am 02:53 Cloudy 14 -10 8 -13.3 77 77 SE 17 28 30.11 1020 10 16 0.00 0.00
3:53 am 03:53 Cloudy 14 -10 8 -13.3 77 77 SE 16 26 30.09 1019 10 16 0.00 0.00
4:53 am 04:53 Cloudy 14 -10 8 -13.3 77 77 SSE 18 30 30.08 1019 10 16 0.00 0.00
5:53 am 05:53 Clear 12 -11.1 6 -14.4 77 77 SSE 12 19 30.07 1018 10 16 0.00 0.00
6:53 am 06:53 Sunny 11 -11.7 6 -14.4 81 81 SSE 12 19 30.06 1018 10 16 0.00 0.00
7:53 am 07:53 Sunny 12 -11.1 7 -13.9 80 80 SE 14 22 30.05 1018 10 16 0.00 0.00
8:53 am 08:53 Sunny 14 -10 8 -13.3 77 77 SE 17 28 30.01 1016 10 16 0.00 0.00
9:53 am 09:53 Partly Cloudy 16 -8.9 9 -12.8 74 74 SSE 20 31 29.99 1016 10 16 0.00 0.00
10:53 am 10:53 Sunny 17 -8.3 11 -11.7 77 77 SE 14 22 29.97 1015 10 16 0.00 0.00
11:53 am 11:53 Sunny 18 -7.8 12 -11.1 77 77 SSE 17 28 29.94 1014 10 16 0.00 0.00
12:53 pm 12:53 Sunny 19 -7.2 13 -10.6 77 77 SE 20 31 29.91 1013 10 16 0.00 0.00
1:53 pm 13:53 Sunny 21 -6.1 14 -10 74 74 SE 18 30 29.88 1012 10 16 0.00 0.00
2:53 pm 14:53 Sunny 22 -5.6 15 -9.4 75 75 SE 18 30 29.87 1012 10 16 0.00 0.00
3:53 pm 15:53 Sunny 22 -5.6 15 -9.4 75 75 SE 14 22 29.87 1012 10 16 0.00 0.00
4:53 pm 16:53 Sunny 23 -5 17 -8.3 78 78 SSE 10 17 29.86 1011 10 16 0.00 0.00
5:53 pm 17:53 Sunny 20 -6.7 15 -9.4 81 81 SSE 7 11 29.88 1012 10 16 0.00 0.00
6:53 pm 18:53 Clear 19 -7.2 15 -9.4 84 84 SSE 9 15 29.91 1013 10 16 0.00 0.00
7:53 pm 19:53 Clear 16 -8.9 13 -10.6 88 88 SSE 8 13 29.92 1013 10 16 0.00 0.00
8:53 pm 20:53 Clear 16 -8.9 12 -11.1 84 84 SSE 9 15 29.91 1013 10 16 0.00 0.00
9:53 pm 21:53 Clear 14 -10 11 -11.7 88 88 VRB 3 6 29.93 1014 10 16 0.00 0.00
10:53 pm 22:53 Mostly Cloudy 10 -12.2 8 -13.3 92 92 NW 6 9 29.96 1015 10 16 0.00 0.00
11:53 pm 23:53 Mostly Clear 12 -11.1 10 -12.2 92 92 VRB 5 7 29.95 1014 10 16 0.00 0.00

Powered by Vaisala Xweather